星链-34705 (STARLINK-34705)

导读

STARLINK-34705是美国SpaceX星链互联网卫星星座的卫星组网卫星,于2025年7月26日在美国发射入轨,主要承担近地轨道低时延卫星互联网组网传输任务,为全球偏远地区、海洋航行、航空飞行等场景提供高速宽带互联网接入服务,补充完善星座覆盖密度与传输容量。

基本信息
目录编号:
64932
目录名称:
STARLINK-34705
国际标识:
2025-158A
轨道中心:
EARTH
卫星名称:
星链-34705
卫星全名:
星链-34705 (STARLINK-34705)
卫星状态:
在轨 (已飞行322 天)
发射日期:
2025-07-26 UTC
国别 :
美国 (US)
星等 :
--
轨道信息
数据来源 国际轨道数据 AOE轨道数据
星历时间 2026-06-13T12:43:07+0800
13小时前
查看轨道信息
2026-06-13T01:00:00+0800
1天前
查看轨道信息
半长轴 6927.604km 6927.617km
偏心率 0.0002791 0.0003036
轨道倾角 97.366° 97.371°
近地点辐角 99.915° 94.251°
升交点赤经 27.301° 26.834°
平近点角 260.239° 140.951°
近地点 547.533km 547.376km
远地点 551.401km 551.584km
周期 95.639分钟 95.639分钟
每日圈数 15.056647 15.056604
详细信息
固有亮度:
5
最大亮度:
2.5
卫星平台:
Starlink V1.0
覆盖范围:
全球
运营商:
太空探索技术公司
运营商所在国:
美国
制造商(研发单位):
太空探索技术公司
制造商所在国:
美国
使用方式:
暂无
卫星简介
Starlink 计划是 SpaceX 推出的全球卫星互联网项目,通过发射低轨道卫星,为全球尤其是偏远地区提供高速、低延迟的互联网服务。自 2019 年起,Starlink 已部署数千颗卫星,旨在缩小全球数字鸿沟,推动互联网普及。该项目还为军事、航空等行业提供通信支持,带来广泛经济效益。
2D轨道图
3D轨道图
轨道高度分析图
轨道倾角分析图
轨道综合分析图
查看轨道综合分析图